| time (UTC) | temp F | wind direction | speed MPH | gust MPH | rain 1hr in | rain 24hr in | rain mn in | humidity % | barometer mb |
| 20260505041039 | 54 | 0 | 0.0 | 0.0 | 0.00 | 0.00 | 0.00 | 62 | 1009.6 |
| 20260505040039 | 54 | 0 | 0.0 | 0.0 | 0.00 | 0.00 | 0.00 | 61 | 1009.6 |
| 20260505035039 | 54 | 0 | 0.0 | 0.0 | 0.00 | 0.00 | 0.00 | 61 | 1009.3 |
| 20260505034039 | 54 | 0 | 0.0 | 0.0 | 0.00 | 0.00 | 0.00 | 61 | 1009.3 |
| 20260505033039 | 55 | 0 | 0.0 | 0.0 | 0.00 | 0.00 | 0.00 | 59 | 1009.3 |
| 20260505032038 | 55 | 0 | 0.0 | 0.0 | 0.00 | 0.00 | 0.00 | 58 | 1009.6 |
| 20260505031038 | 56 | 0 | 0.0 | 0.0 | 0.00 | 0.00 | 0.00 | 57 | 1009.3 |
| 20260505030038 | 57 | 0 | 0.0 | 0.0 | 0.00 | 0.00 | 0.00 | 56 | 1009.3 |
| 20260505025038 | 57 | 0 | 0.0 | 0.0 | 0.00 | 0.00 | 0.00 | 56 | 1009.6 |
| 20260505024038 | 55 | 0 | 0.0 | 0.0 | 0.00 | 0.00 | 0.00 | 58 | 1009.3 |
| 20260505023038 | 56 | 0 | 0.0 | 0.0 | 0.00 | 0.00 | 0.00 | 57 | 1009.6 |
| 20260505022038 | 56 | 0 | 0.0 | 0.0 | 0.00 | 0.00 | 0.00 | 55 | 1009.3 |
| 20260505021038 | 56 | 0 | 0.0 | 0.0 | 0.00 | 0.00 | 0.00 | 55 | 1009.6 |
| 20260505020037 | 57 | 0 | 0.0 | 0.0 | 0.00 | 0.00 | 0.00 | 54 | 1009.3 |
| 20260505015038 | 57 | 0 | 0.0 | 0.0 | 0.00 | 0.00 | 0.00 | 53 | 1009.3 |
| 20260505014037 | 58 | 0 | 0.0 | 0.0 | 0.00 | 0.00 | 0.00 | 53 | 1009.3 |
| 20260505013037 | 58 | 0 | 0.0 | 0.0 | 0.00 | 0.00 | 0.00 | 53 | 1009.3 |
| 20260505012037 | 58 | 0 | 0.0 | 0.0 | 0.00 | 0.00 | 0.00 | 51 | 1008.9 |
| 20260505011037 | 59 | 0 | 0.0 | 0.0 | 0.00 | 0.00 | 0.00 | 51 | 1008.6 |
| 20260505010037 | 60 | 0 | 0.0 | 0.0 | 0.00 | 0.00 | 0.00 | 49 | 1008.6 |
| 20260505005037 | 61 | 0 | 0.0 | 0.0 | 0.00 | 0.00 | 0.00 | 47 | 1008.3 |
| 20260505004037 | 62 | 0 | 0.0 | 0.0 | 0.00 | 0.00 | 0.00 | 45 | 1008.3 |
| 20260505003036 | 63 | 0 | 0.0 | 0.0 | 0.00 | 0.00 | 0.00 | 43 | 1008.3 |
| 20260505002036 | 65 | 0 | 0.0 | 0.0 | 0.00 | 0.00 | 0.00 | 41 | 1007.9 |
| 20260505001037 | 66 | 0 | 0.0 | 0.0 | 0.00 | 0.00 | 0.00 | 40 | 1007.9 |
| 20260505000037 | 67 | 0 | 0.0 | 0.0 | 0.00 | 0.00 | 0.00 | 38 | 1007.6 |
| 20260504235036 | 68 | 0 | 0.0 | 0.0 | 0.00 | 0.00 | 0.00 | 38 | 1007.6 |
| 20260504234036 | 69 | 0 | 0.0 | 0.0 | 0.00 | 0.00 | 0.00 | 37 | 1007.6 |
| 20260504233036 | 70 | 0 | 0.0 | 0.0 | 0.00 | 0.00 | 0.00 | 35 | 1007.2 |
| 20260504232036 | 70 | 0 | 0.0 | 0.0 | 0.00 | 0.00 | 0.00 | 35 | 1007.2 |
| 20260504231036 | 71 | 0 | 0.0 | 0.0 | 0.00 | 0.00 | 0.00 | 34 | 1007.2 |
| 20260504230035 | 71 | 0 | 0.0 | 0.0 | 0.00 | 0.00 | 0.00 | 34 | 1006.9 |
| 20260504225035 | 71 | 0 | 0.0 | 0.0 | 0.00 | 0.00 | 0.00 | 34 | 1006.9 |
| 20260504224035 | 71 | 0 | 0.0 | 0.0 | 0.00 | 0.00 | 0.00 | 33 | 1006.9 |
| 20260504223035 | 72 | 0 | 0.0 | 0.0 | 0.00 | 0.00 | 0.00 | 33 | 1006.9 |
| 20260504222035 | 72 | 0 | 0.0 | 0.0 | 0.00 | 0.00 | 0.00 | 32 | 1006.6 |
| 20260504221034 | 72 | 0 | 0.0 | 0.0 | 0.00 | 0.00 | 0.00 | 32 | 1006.9 |
| 20260504220035 | 72 | 0 | 0.0 | 0.0 | 0.00 | 0.00 | 0.00 | 31 | 1006.9 |
| 20260504215035 | 73 | 0 | 0.0 | 0.0 | 0.00 | 0.00 | 0.00 | 30 | 1006.9 |
| 20260504214035 | 73 | 0 | 0.0 | 0.0 | 0.00 | 0.00 | 0.00 | 31 | 1006.9 |
| 20260504213034 | 73 | 0 | 0.0 | 0.0 | 0.00 | 0.00 | 0.00 | 30 | 1007.2 |
| 20260504212034 | 73 | 0 | 0.0 | 0.0 | 0.00 | 0.00 | 0.00 | 31 | 1007.2 |
| 20260504211034 | 73 | 0 | 0.0 | 0.0 | 0.00 | 0.00 | 0.00 | 30 | 1007.2 |
| 20260504210034 | 74 | 0 | 0.0 | 0.0 | 0.00 | 0.00 | 0.00 | 30 | 1007.2 |
| 20260504205033 | 74 | 0 | 0.0 | 0.0 | 0.00 | 0.00 | 0.00 | 30 | 1007.6 |
| 20260504204033 | 74 | 0 | 0.0 | 0.0 | 0.00 | 0.00 | 0.00 | 29 | 1007.6 |
| 20260504203033 | 73 | 0 | 0.0 | 0.0 | 0.00 | 0.00 | 0.00 | 30 | 1007.6 |
| 20260504202033 | 73 | 0 | 0.0 | 0.0 | 0.00 | 0.00 | 0.00 | 30 | 1007.6 |
| 20260504201034 | 73 | 0 | 0.0 | 0.0 | 0.00 | 0.00 | 0.00 | 30 | 1007.6 |
| 20260504200033 | 72 | 0 | 0.0 | 0.0 | 0.00 | 0.00 | 0.00 | 31 | 1007.6 |
| 20260504195032 | 71 | 0 | 0.0 | 0.0 | 0.00 | 0.00 | 0.00 | 32 | 1007.9 |
| 20260504194033 | 71 | 0 | 0.0 | 0.0 | 0.00 | 0.00 | 0.00 | 32 | 1007.9 |
| 20260504193032 | 72 | 0 | 0.0 | 0.0 | 0.00 | 0.00 | 0.00 | 31 | 1007.9 |
| 20260504192032 | 71 | 0 | 0.0 | 0.0 | 0.00 | 0.00 | 0.00 | 31 | 1008.3 |
| 20260504191032 | 71 | 0 | 0.0 | 0.0 | 0.00 | 0.00 | 0.00 | 30 | 1008.3 |
| 20260504190032 | 71 | 0 | 0.0 | 0.0 | 0.00 | 0.00 | 0.00 | 32 | 1008.3 |
| 20260504185032 | 70 | 0 | 0.0 | 0.0 | 0.00 | 0.00 | 0.00 | 33 | 1008.3 |
| 20260504184032 | 70 | 0 | 0.0 | 0.0 | 0.00 | 0.00 | 0.00 | 32 | 1008.3 |
| 20260504183032 | 71 | 0 | 0.0 | 0.0 | 0.00 | 0.00 | 0.00 | 32 | 1008.6 |
| 20260504182031 | 71 | 0 | 0.0 | 0.0 | 0.00 | 0.00 | 0.00 | 30 | 1008.6 |
| 20260504181032 | 72 | 0 | 0.0 | 0.0 | 0.00 | 0.00 | 0.00 | 30 | 1008.9 |
| 20260504180031 | 72 | 0 | 0.0 | 0.0 | 0.00 | 0.00 | 0.00 | 32 | 1008.9 |
| 20260504175031 | 72 | 0 | 0.0 | 0.0 | 0.00 | 0.00 | 0.00 | 32 | 1008.9 |
| 20260504174031 | 71 | 0 | 0.0 | 0.0 | 0.00 | 0.00 | 0.00 | 31 | 1009.3 |
| 20260504173031 | 71 | 0 | 0.0 | 0.0 | 0.00 | 0.00 | 0.00 | 32 | 1009.3 |
| 20260504172031 | 71 | 0 | 0.0 | 0.0 | 0.00 | 0.00 | 0.00 | 32 | 1009.3 |
| 20260504171030 | 70 | 0 | 0.0 | 0.0 | 0.00 | 0.00 | 0.00 | 33 | 1009.6 |
| 20260504151029 | 67 | 0 | 0.0 | 0.0 | 0.00 | 0.00 | 0.00 | 36 | 1011.0 |
| 20260504141028 | 62 | 0 | 0.0 | 0.0 | 0.00 | 0.00 | 0.00 | 43 | 1011.6 |
| 20260504081023 | 37 | 0 | 0.0 | 0.0 | 0.00 | 0.00 | 0.00 | 77 | 1012.7 |